Location: *
(51.4167°S, 179.6500°E)
Time: 07:10:50
(UTC+00:00)

Daily predictions for brighter satellites

Satellite Brightness Start Highest point End
(mag) Time Altitude Azimuth Time Altitude Azimuth Time Altitude Azimuth
SL-16 R/B 4.2 12:06:22 10° SSW 12:10:32 24° SSE 12:10:32 24° SSE
Resurs 1-4 Rocket 4.2 12:29:28 23° SSW 12:29:28 23° SSW 12:31:28 10° SSW
COSMOS 2455 4.4 12:32:03 32° S 12:32:03 32° S 12:35:35 10° SSE
Cosmos 2297 Rocket 4.5 12:34:21 17° ESE 12:34:21 17° ESE 12:35:59 10° SE
Cosmos 2237 Rocket 4.3 12:43:04 10° SSW 12:44:54 21° SSW 12:44:54 21° SSW
ADEOS II 4.0 12:53:29 25° S 12:53:29 25° S 12:55:41 10° S
Cosmos 2227 Rocket 4.3 12:55:21 20° ESE 12:55:21 20° ESE 12:57:38 10° SE
CZ-2D R/B 4.3 13:02:41 18° SSW 13:02:41 18° SSW 13:04:05 10° SSW
USA 215 3.7 13:15:44 10° ESE 13:20:43 55° ESE 13:20:43 55° ESE
NOSS 3-4 (A) 4.1 13:20:47 10° SW 13:28:11 59° SE 13:28:59 56° ESE
NOSS 3-4 (C) 4.1 13:20:54 10° SW 13:28:19 59° SE 13:34:50 10° ENE
SL-16 R/B 4.5 13:26:51 10° SE 13:31:16 20° E 13:32:56 18° ENE
ATLAS 2AS CENTAUR R/B 3.8 13:25:16 10° SW 13:31:35 41° SSE 13:38:17 10° E
ATLAS CENTAUR R/B 4.2 13:35:12 16° SSE 13:35:12 16° SSE 13:36:13 10° SSE
IDEFIX/ARIANE 42P 4.3 13:40:19 26° SSW 13:40:19 26° SSW 13:42:31 10° SSW
SL-16 R/B 3.9 13:50:10 10° SSW 13:52:23 24° SSW 13:52:23 24° SSW
CZ-2C R/B 3.5 14:09:50 40° SSE 14:09:50 40° SSE 14:13:17 10° S
Lacrosse 5 rocket 4.0 14:16:39 15° ESE 14:16:39 15° ESE 14:17:24 10° ESE
Cosmos 2297 Rocket 2.7 14:16:09 56° S 14:16:09 56° S 14:20:47 10° SSE
SL-4 R/B 3.8 14:21:05 34° E 14:21:05 34° E 14:23:53 10° E
Meteor 2-15 4.4 14:17:26 10° S 14:23:38 78° ESE 14:23:44 77° E
Cosmos 1269 Rocket 4.4 14:28:31 63° ESE 14:28:31 63° ESE 14:33:09 10° SSE
FENGYUN 3A 4.0 14:29:56 60° ENE 14:30:35 65° ESE 14:36:04 10° S
ARIANE 5 R/B 3.8 14:33:55 31° SSW 14:33:55 31° SSW 14:36:36 10° SSW
Timation 2 Rocket 3.9 14:31:35 82° NE 14:31:43 82° ENE 14:38:01 10° SSE
Cosmos 2227 Rocket 2.4 14:37:09 61° SSW 14:37:09 61° SSW 14:42:19 10° SSE
ALOS 2.8 14:37:36 58° SE 14:37:36 58° SE 14:42:02 10° S
Cosmos 2082 3.6 14:42:45 82° ENE 14:42:45 82° ENE 14:48:29 10° SSE
UNK 4.0 14:47:43 10° SSE 14:52:19 67° E 14:52:19 67° E
Cosmos 2263 Rocket 2.9 14:59:26 37° NNE 15:01:04 49° ENE 15:06:31 10° SE
Meteor 2-6 Rocket 4.0 14:55:33 10° SSW 15:01:13 90° N 15:02:25 57° NNE
Spot 4 Rocket 4.4 15:03:51 50° SW 15:03:51 50° SW 15:07:55 10° SSW
ADEOS Rocket 2.7 14:58:32 10° SSE 15:04:09 82° WSW 15:05:00 65° NW
Cosmos 2219 3.7 15:04:00 43° SW 15:04:12 43° SW 15:09:42 10° SSE
USA 215 3.7 14:58:44 10° ESE 15:05:11 58° S 15:08:04 33° WSW
Cosmos 1515 Rocket 3.9 15:01:45 10° S 15:06:18 65° ESE 15:07:20 48° NE
Meteor 2-15 Rocket 4.3 15:01:46 10° SSW 15:07:55 68° W 15:08:53 58° NW
PSLV R/B 3.6 15:11:40 64° NE 15:12:18 80° ESE 15:16:47 10° SSW
ATLAS CENTAUR R/B 3.8 15:11:19 14° SSW 15:12:22 15° SSW 15:14:43 10° SSE
SL-16 R/B 2.5 15:09:23 10° SSE 15:15:42 89° WSW 15:18:02 42° NNW
Nadezhda 4 Rocket 4.0 15:18:06 52° WNW 15:19:08 59° WSW 15:25:22 10° S
NOSS 3-4 (C) 4.5 15:12:24 10° SW 15:22:31 26° N 15:25:12 10° N
Cosmos 1484 Rocket 2.9 15:21:47 70° S 15:21:47 70° S 15:25:20 10° SSW
ATLAS 2AS CENTAUR R/B 2.6 15:16:13 10° SW 15:23:04 79° NW 15:30:23 10° NE
Cosmos 1943 3.1 15:18:23 10° SSW 15:24:07 77° WNW 15:29:49 10° NNE
Alouette 2 Rocket 3.6 15:26:09 10° SSW 15:29:02 54° SSW 15:29:02 54° SSW
Cosmos 1603 3.6 15:25:01 10° SSW 15:30:42 70° WNW 15:36:19 10° NNE
Cosmos 1766 Rocket 3.9 15:35:46 47° WSW 15:35:46 47° WSW 15:39:56 10° S
Meteor 2-3 Rocket 4.5 15:36:29 33° WSW 15:36:55 33° WSW 15:42:08 10° S
H-2A R/B 4.0 15:39:07 10° NE 15:42:47 43° ESE 15:46:28 10° S
METEOR-M 4.2 15:41:10 29° NNW 15:43:47 54° W 15:49:07 10° SSW
Meteor 1-10 Rocket 4.2 15:38:46 10° SSW 15:44:22 57° W 15:48:22 19° NNW
Cosmos 1408 Rocket 3.4 15:44:04 48° NNW 15:45:14 73° W 15:49:42 10° S
Meteor 1-28 Rocket 3.1 15:42:18 10° S 15:46:06 74° WSW 15:46:34 63° NW
CZ-2C R/B 3.9 15:49:11 20° SW 15:49:11 20° SW 15:51:10 10° SW
RESURS DK-1 4.0 15:43:49 10° SSW 15:47:44 35° SE 15:51:38 10° ENE
Cosmos 1500 Rocket 3.7 15:46:34 21° N 15:49:31 75° E 15:54:03 10° SSE
Lacrosse 5 rocket 1.6 15:52:15 40° SW 15:52:56 46° SSW 15:56:33 10° ESE
ADEOS 4.1 15:48:28 10° NNE 15:53:39 62° ESE 15:58:54 10° S
Cosmos 1092 Rocket 4.2 15:53:47 29° NW 15:56:48 52° WSW 16:03:03 10° S
Envisat 3.3 15:53:18 10° NNE 15:58:24 71° ESE 16:03:35 10° S
SL-4 R/B 2.3 15:56:37 34° W 15:58:45 79° NNW 16:03:38 10° ENE
Cosmos 2297 Rocket 3.8 15:57:57 17° WSW 16:00:10 21° SSW 16:04:24 10° SSE
Cosmos 1867 3.9 15:59:42 32° W 16:01:56 51° SW 16:07:14 10° SE
Cosmos 1515 4.1 15:58:04 10° S 16:01:56 66° ESE 16:05:45 10° NNE
Cosmos 2251 Rocket 3.5 16:02:20 28° NW 16:05:06 67° WSW 16:10:25 10° SSE
S3M 4.0 16:01:03 10° S 16:07:30 90° WNW 16:13:57 10° N
Okean 1 4.1 16:06:28 10° S 16:10:32 55° ESE 16:14:31 10° NNE
Meteor 1-31 Rocket 2.7 16:07:08 10° NNE 16:10:59 89° E 16:14:54 10° SSW
ALOS 3.7 16:16:05 20° WSW 16:16:05 20° WSW 16:18:45 10° SW
Meteor 1-27 Rocket 3.9 16:12:04 10° SSW 16:17:30 50° W 16:22:55 10° NNW
Cosmos 2227 Rocket 3.9 16:18:58 14° WSW 16:21:49 20° SSW 16:25:55 10° SSE
Cosmos 2228 Rocket 3.2 16:22:54 10° SSW 16:27:17 52° W 16:31:37 10° N
CZ-2C R/B 4.5 16:23:54 10° NE 16:28:49 42° ESE 16:33:33 10° S
Cosmos 1743 Rocket 3.9 16:26:22 15° NNW 16:29:56 49° WSW 16:34:22 10° S
Cosmos 1602 3.8 16:26:50 10° N 16:30:46 86° E 16:34:44 10° S
Cosmos 1140 Rocket 3.5 16:32:00 10° NNW 16:37:16 78° WSW 16:42:38 10° SSE
Cosmos 1500 3.7 16:35:46 10° N 16:39:38 66° E 16:43:34 10° SSE
Meteor PRIRODA 3.9 16:37:34 10° NNE 16:41:21 77° ESE 16:45:09 10° S
Meteor 2-4 Rocket 4.3 16:36:24 10° S 16:42:25 70° ESE 16:48:23 10° NNE
Cosmos 407 Rocket 3.6 16:37:02 10° NNW 16:42:25 69° WSW 16:47:51 10° SSE
Cosmos 1340 Rocket 3.6 16:39:05 10° N 16:42:57 53° E 16:46:52 10° SSE
Cosmos 883 Rocket 4.4 16:37:37 10° SSW 16:43:53 76° W 16:50:07 10° N
Cosmos 1666 Rocket 3.9 16:39:47 10° N 16:44:13 72° E 16:48:45 10° SSE
Cosmos 468 Rocket 4.3 16:39:40 10° SSW 16:45:05 77° ESE 16:50:27 10° NNE
Cosmos 2263 Rocket 2.9 16:41:09 16° WNW 16:45:10 38° SW 16:50:29 10° SSE
Meteor 1-19 Rocket 4.2 16:40:48 10° SSW 16:46:42 69° W 16:52:21 10° N
USA 215 3.7 16:41:18 10° E 16:47:46 61° SSE 16:54:15 10° WSW
CZ-4C R/B 3.6 16:44:28 10° S 16:48:54 60° WSW 16:53:09 10° NNW
ADEOS Rocket 4.4 16:45:22 10° SSW 16:48:57 18° SW 16:51:57 12° W
Cosmos 1190 Rocket 4.0 16:45:45 10° NNW 16:51:01 78° WSW 16:56:24 10° SSE
ATLAS CENTAUR R/B 3.9 16:50:31 10° SSW 16:52:49 14° SSE 16:55:02 10° SE
YAOGAN 6 3.3 16:53:37 10° NNW 16:56:49 31° W 17:00:07 10° SSW
SL-16 R/B 3.8 16:53:52 10° S 16:58:34 23° SW 17:03:08 10° W
NOAA 6 4.4 16:58:42 10° NNE 17:03:55 76° ESE 17:09:10 10° SSW
SL-08 R/B 3.4 17:05:16 10° S 17:10:12 66° WSW 17:15:00 10° NNW
Cosmos 1862 Rocket 3.6 17:08:12 10° SSW 17:12:38 64° W 17:16:57 10° N
Cosmos 1707 Rocket 4.1 17:08:37 10° SSW 17:12:44 38° W 17:16:50 10° NNW
ATLAS 2AS CENTAUR R/B 3.8 17:08:05 10° WSW 17:13:08 22° WNW 17:18:23 10° NNW
Cosmos 540 Rocket 3.7 17:09:32 10° SSW 17:14:48 80° ESE 17:20:01 10° NNE
Cosmos 1939 Rocket 3.3 17:12:05 10° NNE 17:16:14 76° ESE 17:20:29 10° S
H-2A R/B 4.0 17:14:10 10° NW 17:17:06 20° W 17:20:02 10° SW
Cosmos 1655 Rocket 4.4 17:13:05 10° NW 17:19:09 46° WSW 17:25:23 10° S
Cosmos 1666 2.7 17:19:00 10° NNW 17:22:55 78° W 17:26:53 10° S
deb Chang Zheng 4 4.1 17:18:57 10° NNE 17:23:14 66° ESE 17:27:37 10° S
CZ-4B R/B 3.5 17:20:32 10° N 17:24:50 42° W 17:29:06 10° SSW
Lacrosse 4 Rocket 4.2 17:21:33 10° NNE 17:25:10 24° ENE 17:28:49 10° ESE
Sich 1 3.9 17:21:49 10° NW 17:25:44 30° WSW 17:29:41 10° S
RESURS DK-1 3.1 17:21:55 10° SW 17:25:46 34° WNW 17:29:33 10° N
Cosmos 1833 Rocket 3.2 17:20:35 10° SSW 17:26:18 66° ESE 17:31:57 10° NE
Okean 1-7 3.5 17:22:03 10° S 17:26:23 67° ESE 17:30:40 10° NNE
